Weather History for Williston, ND

Change the Weather History Date:

Wednesday, April 10, 2013

  Actual Average Record
Temperature  
Mean Temperature 28 °F 41 °F  
Max Temperature 41 °F 55 °F 83 °F (1971)
Min Temperature 14 °F 28 °F 9 °F (1997)
Degree Days  
Heating Degree Days 37 24  
Month to date heating degree days 331 259  
Since 1 July heating degree days 8369 8134  
Cooling Degree Days 0 0  
Month to date cooling degree days 0 0  
Year to date cooling degree days 0 0  
Moisture  
Dew Point 16 °F    
Average Humidity 64    
Maximum Humidity 96    
Minimum Humidity 32    
Precipitation  
Precipitation 0.00 in 0.03 in 0.40 in (1965)
Month to date precipitation 0.12 0.28  
Year to date precipitation 2.11 1.97  
Sea Level Pressure  
Sea Level Pressure 30.29 in    
Wind  
Wind Speed 5 mph (ESE)    
Max Wind Speed 15 mph    
Max Gust Speed 21 mph    
Visibility 10 miles    
Events      
T = Trace of Precipitation, MM = Missing Value Source: NWS Daily Summary

Daily Weather History Graph

Daily Weather History Graph

Search for Another Location

Airport:

Trip Planner

Search our weather history database for the weather conditions in past years. The results will help you decide how hot, cold, wet, or windy it might be!

Date:

Astronomy

Apr. 10, 2013 Rise Set
Actual Time 7:13 AM CDT 8:38 PM CDT
Civil Twilight 6:41 AM CDT 9:10 PM CDT
Nautical Twilight 6:02 AM CDT 9:50 PM CDT
Astronomical Twilight 5:20 AM CDT 10:32 PM CDT
Moon 7:08 AM CDT (4/10) 9:21 PM CDT (4/10)
Length of Visible Light 14h 29m
Length of Day
13h 24m
New Moon, 0% of the Moon is Illuminated
Apr 10
New Moon
Apr 18
First Quarter
Apr 25
Full
May 2
Last Quarter
May 9
New

Hourly Weather History & Observations

Time (CDT) Temp. Windchill Dew Point Humidity Pressure Visibility Wind Dir Wind Speed Gust Speed Precip Events Conditions
12:52 AM 18.0 °F - 15.1 °F 88% 30.51 in 10.0 mi Calm Calm - N/A   Clear
1:52 AM 16.0 °F - 12.9 °F 88% 30.50 in 10.0 mi Calm Calm - N/A   Clear
2:52 AM 17.1 °F 11.7 °F 14.0 °F 88% 30.45 in 10.0 mi North 3.5 mph - N/A   Clear
3:52 AM 17.1 °F 10.0 °F 14.0 °F 88% 30.40 in 10.0 mi North 4.6 mph - N/A   Clear
4:52 AM 17.1 °F 8.7 °F 14.0 °F 88% 30.40 in 10.0 mi NNE 5.8 mph - N/A   Clear
5:52 AM 16.0 °F - 14.0 °F 92% 30.42 in 10.0 mi Calm Calm - N/A   Clear
6:52 AM 14.0 °F - 12.0 °F 92% 30.42 in 10.0 mi Calm Calm - N/A   Clear
7:52 AM 16.0 °F - 14.0 °F 92% 30.41 in 10.0 mi Calm Calm - N/A   Clear
8:52 AM 21.0 °F - 18.0 °F 88% 30.40 in 10.0 mi Calm Calm - N/A   Clear
9:52 AM 24.1 °F - 19.0 °F 81% 30.39 in 10.0 mi Calm Calm - N/A   Clear
10:52 AM 28.0 °F - 19.0 °F 69% 30.39 in 10.0 mi Calm Calm - N/A   Clear
11:52 AM 30.0 °F 25.2 °F 18.0 °F 61% 30.36 in 10.0 mi SE 4.6 mph - N/A   Clear
12:52 PM 33.1 °F 26.9 °F 14.0 °F 46% 30.33 in 10.0 mi SE 6.9 mph - N/A   Clear
1:52 PM 35.1 °F 31.0 °F 12.9 °F 40% 30.30 in 10.0 mi Variable 4.6 mph - N/A   Clear
2:52 PM 37.0 °F 34.5 °F 16.0 °F 42% 30.25 in 10.0 mi Variable 3.5 mph - N/A   Clear
3:52 PM 37.9 °F - 14.0 °F 38% 30.21 in 10.0 mi Calm Calm - N/A   Clear
4:52 PM 39.9 °F 33.9 °F 17.1 °F 40% 30.19 in 10.0 mi SSE 9.2 mph - N/A   Clear
5:52 PM 41.0 °F 35.2 °F 15.1 °F 35% 30.15 in 10.0 mi SSE 9.2 mph - N/A   Clear
6:52 PM 41.0 °F 36.4 °F 14.0 °F 33% 30.14 in 10.0 mi SSE 6.9 mph - N/A   Clear
7:52 PM 37.9 °F 31.5 °F 19.0 °F 47% 30.12 in 10.0 mi ESE 9.2 mph - N/A   Clear
8:52 PM 33.1 °F 23.0 °F 21.9 °F 64% 30.11 in 10.0 mi ESE 15.0 mph - N/A   Clear
9:52 PM 30.2 °F 23.4 °F 21.2 °F 69% 30.01 in 10.0 mi ESE 6.9 mph - N/A   Clear
10:52 PM 28.9 °F 21.1 °F 21.0 °F 72% 30.08 in 10.0 mi SE 8.1 mph - N/A   Clear
11:52 PM 28.0 °F 19.3 °F 21.0 °F 75% 30.06 in 10.0 mi SSE 9.2 mph 20.7 mph N/A   Clear